Weather History for Saginaw Browne, MI

Change the Weather History Date:

Saturday, March 2, 2013

  Actual Average (KMBS) Record (KMBS)
Temperature  
Mean Temperature 22 °F 28 °F  
Max Temperature 26 °F 36 °F 44 °F (1997)
Min Temperature 19 °F 21 °F -2 °F (2003)
Degree Days  
Heating Degree Days 42    
Month to date heating degree days  
Since 1 July heating degree days  
Cooling Degree Days 0    
Month to date cooling degree days  
Year to date cooling degree days  
Moisture  
Dew Point 19 °F    
Average Humidity 81    
Maximum Humidity 93    
Minimum Humidity 69    
Precipitation  
Precipitation 0.00 in 0.07 in 0.77 in (2002)
Month to date precipitation 0.14  
Year to date precipitation 3.46  
Snow  
Snow 0.00 in - - ()
Month to date snowfall  
Since 1 July snowfall  
Snow Depth -    
Sea Level Pressure  
Sea Level Pressure 30.08 in    
Wind  
Wind Speed 9 mph (NNW)    
Max Wind Speed 14 mph    
Max Gust Speed 18 mph    
Visibility 10 miles    
Events Snow    
T = Trace of Precipitation, MM = Missing Value Source: NWS Daily Summary

Daily Weather History Graph

Daily Weather History Graph

Search for Another Location

Airport:

Trip Planner

Search our weather history database for the weather conditions in past years. The results will help you decide how hot, cold, wet, or windy it might be!

Date:

Astronomy

Mar. 02, 2013 Rise Set
Actual Time 7:09 AM EST 6:25 PM EST
Civil Twilight 6:41 AM EST 6:54 PM EST
Nautical Twilight 6:08 AM EST 7:27 PM EST
Astronomical Twilight 5:34 AM EST 8:00 PM EST
Moon No Moon Rise 9:26 AM EST
Length of Visible Light 12h 13m
Length of Day
11h 16m
Waning Gibbous, 74% of the Moon is Illuminated
Mar 2
Waning Gibbous
Mar 4
Last Quarter
Mar 11
New
Mar 19
First Quarter
Mar 27
Full

Hourly Weather History & Observations

Time (EST) Temp. Windchill Dew Point Humidity Pressure Visibility Wind Dir Wind Speed Gust Speed Precip Events Conditions
12:12 AM 24.8 °F 15.3 °F 19.4 °F 80% 30.10 in 10.0 mi NNW 9.2 mph - N/A   Overcast
12:32 AM 24.8 °F 14.6 °F 17.6 °F 74% 30.09 in 10.0 mi North 10.4 mph - N/A   Overcast
12:52 AM 24.8 °F 15.3 °F 19.4 °F 80% 30.09 in 10.0 mi NNW 9.2 mph - N/A   Overcast
1:12 AM 24.8 °F 14.6 °F 19.4 °F 80% 30.09 in 10.0 mi NNW 10.4 mph - N/A   Overcast
1:32 AM 24.8 °F 14.0 °F 19.4 °F 80% 30.09 in 10.0 mi NNW 11.5 mph - N/A   Overcast
1:52 AM 23.0 °F 12.4 °F 19.4 °F 86% 30.09 in 10.0 mi NNW 10.4 mph - N/A   Overcast
2:12 AM 23.0 °F 12.4 °F 19.4 °F 86% 30.09 in 10.0 mi NNW 10.4 mph 18.4 mph N/A   Overcast
2:33 AM 23.0 °F 11.7 °F 19.4 °F 86% 30.09 in 10.0 mi NNW 11.5 mph - N/A   Overcast
2:53 AM 23.0 °F 11.7 °F 19.4 °F 86% 30.08 in 10.0 mi NNW 11.5 mph - N/A   Overcast
3:13 AM 23.0 °F 11.1 °F 19.4 °F 86% 30.08 in 10.0 mi NW 12.7 mph - N/A   Overcast
3:33 AM 23.0 °F 11.7 °F 19.4 °F 86% 30.08 in 10.0 mi NNW 11.5 mph - N/A   Overcast
3:53 AM 23.0 °F 11.1 °F 19.4 °F 86% 30.07 in 10.0 mi NNW 12.7 mph - N/A   Overcast
4:13 AM 23.0 °F 11.1 °F 19.4 °F 86% 30.07 in 10.0 mi NNW 12.7 mph - N/A   Overcast
4:33 AM 23.0 °F 12.4 °F 19.4 °F 86% 30.07 in 10.0 mi NNW 10.4 mph - N/A   Overcast
4:53 AM 23.0 °F 11.7 °F 19.4 °F 86% 30.07 in 10.0 mi NNW 11.5 mph 16.1 mph N/A   Overcast
5:13 AM 23.0 °F 11.7 °F 19.4 °F 86% 30.08 in 10.0 mi NNW 11.5 mph - N/A   Overcast
5:33 AM 23.0 °F 11.7 °F 19.4 °F 86% 30.08 in 10.0 mi NNW 11.5 mph - N/A   Overcast
5:53 AM 23.0 °F 13.1 °F 19.4 °F 86% 30.08 in 10.0 mi NNW 9.2 mph - N/A   Overcast
6:13 AM 23.0 °F 13.1 °F 19.4 °F 86% 30.08 in 10.0 mi NNW 9.2 mph - N/A   Overcast
6:34 AM 23.0 °F 13.1 °F 19.4 °F 86% 30.08 in 10.0 mi NW 9.2 mph - N/A   Overcast
6:54 AM 23.0 °F 12.4 °F 19.4 °F 86% 30.08 in 10.0 mi NNW 10.4 mph - N/A Snow Light Snow
7:14 AM 23.0 °F 11.7 °F 19.4 °F 86% 30.08 in 10.0 mi NNW 11.5 mph - N/A Snow Light Snow
7:34 AM 23.0 °F 12.4 °F 19.4 °F 86% 30.09 in 10.0 mi NNW 10.4 mph - N/A Snow Light Snow
7:54 AM 23.0 °F 11.7 °F 19.4 °F 86% - 10.0 mi NNW 11.5 mph - N/A Snow Light Snow
8:14 AM 23.0 °F 11.7 °F 19.4 °F 86% 30.09 in 10.0 mi NNW 11.5 mph 17.3 mph N/A Snow Light Snow
8:34 AM 23.0 °F 12.4 °F 19.4 °F 86% 30.09 in 7.0 mi NNW 10.4 mph - N/A Snow Light Snow
8:54 AM 23.0 °F 13.1 °F 19.4 °F 86% 30.10 in 7.0 mi NNW 9.2 mph - N/A Snow Light Snow
9:15 AM 23.0 °F 12.4 °F 19.4 °F 86% 30.09 in 7.0 mi NNW 10.4 mph - N/A Snow Light Snow
9:35 AM 23.0 °F 12.4 °F 19.4 °F 86% 30.10 in 7.0 mi NNW 10.4 mph - N/A Snow Light Snow
9:55 AM 23.0 °F 11.7 °F 19.4 °F 86% 30.09 in 7.0 mi NNW 11.5 mph - N/A Snow Light Snow
10:15 AM 23.0 °F 13.1 °F 19.4 °F 86% 30.09 in 7.0 mi NNW 9.2 mph - N/A Snow Light Snow
10:35 AM 23.0 °F 13.1 °F 19.4 °F 86% 30.09 in 10.0 mi NNW 9.2 mph - N/A   Overcast
10:55 AM 24.8 °F 15.3 °F 19.4 °F 80% 30.10 in 10.0 mi North 9.2 mph - N/A Snow Light Snow
11:15 AM 24.8 °F 12.9 °F 19.4 °F 80% 30.09 in 10.0 mi NNW 13.8 mph 17.3 mph N/A Snow Light Snow
11:30 AM 24.8 °F 14.0 °F 19.4 °F 80% 30.09 in 10.0 mi NNW 11.5 mph - N/A   Overcast
11:51 AM 24.8 °F 14.6 °F 19.4 °F 80% 30.09 in 10.0 mi NNW 10.4 mph - N/A   Overcast
12:11 PM 24.8 °F 14.6 °F 19.4 °F 80% 30.09 in 10.0 mi NNW 10.4 mph - N/A   Overcast
12:31 PM 24.8 °F 14.0 °F 17.6 °F 74% 30.09 in 10.0 mi NNW 11.5 mph - N/A   Overcast
12:51 PM 24.8 °F 16.1 °F 17.6 °F 74% 30.09 in 10.0 mi North 8.1 mph - N/A   Overcast
1:11 PM 26.6 °F 17.5 °F 19.4 °F 74% 30.08 in 10.0 mi NNW 9.2 mph - N/A   Overcast
1:31 PM 26.6 °F 18.2 °F 19.4 °F 74% 30.08 in 10.0 mi North 8.1 mph - N/A   Overcast
1:51 PM 26.6 °F 18.2 °F 19.4 °F 74% 30.07 in 10.0 mi North 8.1 mph - N/A Snow Light Snow
2:11 PM 26.6 °F 19.1 °F 19.4 °F 74% 30.07 in 10.0 mi NNW 6.9 mph - N/A   Overcast
2:31 PM 26.6 °F 19.1 °F 19.4 °F 74% 30.06 in 10.0 mi North 6.9 mph - N/A   Overcast
3:12 PM 26.6 °F 19.1 °F 19.4 °F 74% 30.07 in 10.0 mi NNE 6.9 mph - N/A   Overcast
3:32 PM 26.6 °F 19.1 °F 19.4 °F 74% 30.07 in 10.0 mi NNE 6.9 mph - N/A   Overcast
3:52 PM 26.6 °F 20.0 °F 17.6 °F 69% 30.07 in 10.0 mi NNE 5.8 mph - N/A   Overcast
4:12 PM 26.6 °F 21.2 °F 17.6 °F 69% 30.06 in 10.0 mi North 4.6 mph - N/A   Overcast
4:32 PM 26.6 °F 21.2 °F 17.6 °F 69% 30.06 in 10.0 mi North 4.6 mph - N/A   Overcast
4:52 PM 26.6 °F 17.5 °F 19.4 °F 74% 30.07 in 10.0 mi NNE 9.2 mph - N/A   Overcast
5:12 PM 26.6 °F 18.2 °F 19.4 °F 74% 30.07 in 10.0 mi NNE 8.1 mph - N/A   Overcast
5:32 PM 26.6 °F 20.0 °F 19.4 °F 74% 30.07 in 10.0 mi NNE 5.8 mph - N/A   Overcast
5:52 PM 26.6 °F 21.2 °F 19.4 °F 74% 30.08 in 10.0 mi NNE 4.6 mph - N/A   Overcast
6:12 PM 26.6 °F 21.2 °F 17.6 °F 69% 30.08 in 10.0 mi NNW 4.6 mph - N/A   Overcast
6:32 PM 26.6 °F 22.6 °F 17.6 °F 69% 30.08 in 10.0 mi North 3.5 mph - N/A   Overcast
6:53 PM 26.6 °F - 19.4 °F 74% 30.08 in 10.0 mi Calm Calm - N/A   Overcast
7:13 PM 26.6 °F - 19.4 °F 74% 30.08 in 10.0 mi Calm Calm - N/A   Overcast
7:33 PM 24.8 °F - 17.6 °F 74% 30.07 in 10.0 mi Calm Calm - N/A   Scattered Clouds
7:53 PM 23.0 °F - 17.6 °F 80% 30.07 in 10.0 mi Calm Calm - N/A   Clear
8:13 PM 23.0 °F - 17.6 °F 80% 30.07 in 10.0 mi Calm Calm - N/A   Clear
8:33 PM 21.2 °F - 15.8 °F 80% 30.07 in 10.0 mi Calm Calm - N/A   Clear
8:53 PM 19.4 °F - 17.6 °F 93% 30.07 in 10.0 mi Calm Calm - N/A   Scattered Clouds
9:13 PM 19.4 °F - 17.6 °F 93% 30.07 in 10.0 mi Calm Calm - N/A   Mostly Cloudy
9:34 PM 21.2 °F - 17.6 °F 86% 30.07 in 10.0 mi Calm Calm - N/A   Mostly Cloudy
9:54 PM 21.2 °F 16.4 °F 17.6 °F 86% 30.07 in 10.0 mi North 3.5 mph - N/A   Overcast
10:14 PM 21.2 °F 16.4 °F 17.6 °F 86% 30.07 in 10.0 mi North 3.5 mph - N/A   Overcast
10:34 PM 21.2 °F 16.4 °F 17.6 °F 86% 30.07 in 10.0 mi North 3.5 mph - N/A   Overcast
10:54 PM 21.2 °F 14.9 °F 17.6 °F 86% 30.06 in 10.0 mi North 4.6 mph - N/A   Overcast
11:14 PM 21.2 °F - 17.6 °F 86% - 10.0 mi Calm Calm - N/A   Overcast
11:34 PM 21.2 °F - 17.6 °F 86% 30.06 in 10.0 mi Calm Calm - N/A   Overcast
11:54 PM 21.2 °F 16.4 °F 17.6 °F 86% 30.06 in 10.0 mi NW 3.5 mph - N/A   Overcast